Regional Weather Roundup
Issued by NWS

Home | Current Version | Previous Version | Text Only | Print | Product List | Glossary Off
Versions: 1 2 3 4 5 6 7 8 9 10 11 12 13 14 15 16 17 18 19 20 21 22 23 24 25 26 27 28 29 30 31 32 33 34 35 36 37 38 39 40 41 42 43 44 45 46 47 48 49 50

000
ASUS43 KLSX 010310
RWRMO

WEATHER SUMMARY FOR MISSOURI
NATIONAL WEATHER SERVICE SPRINGFIELD MO
1000 PM CDT MON AUG 31 2015

NOTE: "FAIR" INDICATES FEW OR NO CLOUDS BELOW 12,000 FEET WITH NO
       SIGNIFICANT WEATHER AND/OR OBSTRUCTIONS TO VISIBILITY.
       CURRENT SKY AND/OR WEATHER CONDITIONS ARE NOT AVAILABLE FOR
       CHILLICOTHE AND FARMINGTON.

MOZ001>031-035>038-043-044-053-054-010400-
...NORTHERN AND WESTERN MISSOURI...

CITY           SKY/WX    TMP DP  RH WIND       PRES   REMARKS
KANSAS CTY INT CLEAR     76  70  82 S10       29.97R
KANSAS C DTWN  CLEAR     82  70  66 S8        29.97R
LEE`S SUMMIT   CLEAR     80  67  64 S9        29.99R
ST JOSEPH      CLEAR     75  70  84 S5        29.95R
CHILLICOTHE      N/A     79  71  76 S5        29.98R
KIRKSVILLE     CLEAR     74  67  78 S3        30.01R

$$
MOZ066>068-077>081-088>096-101>105-010400-
...SOUTHWEST MISSOURI...

CITY           SKY/WX    TMP DP  RH WIND       PRES   REMARKS
SPRINGFIELD    CLEAR     75  68  78 S8        30.05R
JOPLIN         CLEAR     77  70  79 SE8       30.03R

$$
MOZ032>034-039>042-045>050-055>058-069>072-010400-
...CENTRAL MISSOURI...

CITY           SKY/WX    TMP DP  RH WIND       PRES   REMARKS
COLUMBIA       CLEAR     78  71  79 S7        30.02R
JEFFERSON CITY FAIR      80  70  71 E5        30.01R
ROLLA          CLEAR     77  70  79 S9        30.05R
SEDALIA        CLEAR     77  69  76 S7        30.02R
WHITEMAN AFB   CLEAR     76  69  80 S6        29.99R
WARRENSBURG    CLEAR     77  68  73 S5        30.00R
OSAGE BEACH    CLEAR     79  70  73 S5        30.04S

$$
MOZ051-052-059>065-010400-
...EAST CENTRAL MISSOURI...

CITY           SKY/WX    TMP DP  RH WIND       PRES   REMARKS
ST LOUIS INTL  PTCLDY    82  72  71 S8        30.05R
SPIRIT OF STL  CLEAR     80  73  79 S7        30.02R
ST CHARLES     CLEAR     75  73  93 E5        30.03R

$$
MOZ072>076-082>087-097>100-106>115-010400-
...SOUTH CENTRAL AND SOUTHEAST MISSOURI...

CITY           SKY/WX    TMP DP  RH WIND       PRES   REMARKS
CAPE GIRARDEAU CLEAR     75  69  81 S5        30.07R
FARMINGTON     CLEAR     75  72  88 S3        30.11R
POPLAR BLUFF   CLEAR     73  70  90 CALM      30.05R
WEST PLAINS    CLEAR     75  68  78 CALM      30.11R

$$



USA.gov is the U.S. government's official web portal to all federal, state and local government web resources and services.